| time (UTC) | temp F | wind direction | speed MPH | gust MPH | rain 1hr in | rain 24hr in | rain mn in | humidity % | barometer mb |
| 20260506033432 | 60 | 152 | 0.0 | 0.0 | 0.00 | 0.05 | 0.05 | 72 | 1008.4 |
| 20260506032928 | 59 | 140 | 0.0 | 0.0 | 0.00 | 0.05 | 0.05 | 73 | 1008.1 |
| 20260506032425 | 59 | 140 | 0.0 | 0.0 | 0.00 | 0.05 | 0.05 | 73 | 1008.1 |
| 20260506031922 | 59 | 143 | 0.0 | 0.0 | 0.00 | 0.05 | 0.05 | 71 | 1008.2 |
| 20260506031419 | 59 | 143 | 0.0 | 0.0 | 0.00 | 0.05 | 0.05 | 71 | 1008.2 |
| 20260506030917 | 59 | 145 | 0.0 | 0.0 | 0.00 | 0.05 | 0.05 | 71 | 1008.2 |
| 20260506030415 | 59 | 145 | 0.0 | 0.0 | 0.00 | 0.05 | 0.05 | 71 | 1008.2 |
| 20260506025911 | 60 | 145 | 0.0 | 0.0 | 0.00 | 0.05 | 0.05 | 70 | 1008.2 |
| 20260506025408 | 60 | 145 | 0.0 | 0.0 | 0.00 | 0.05 | 0.05 | 70 | 1008.2 |
| 20260506024905 | 60 | 145 | 0.0 | 0.0 | 0.00 | 0.05 | 0.05 | 70 | 1008.3 |
| 20260506024402 | 60 | 145 | 0.0 | 0.0 | 0.00 | 0.05 | 0.05 | 70 | 1008.3 |
| 20260506023858 | 61 | 145 | 0.0 | 0.0 | 0.00 | 0.05 | 0.05 | 68 | 1008.3 |
| 20260506023355 | 61 | 145 | 0.0 | 0.0 | 0.00 | 0.05 | 0.05 | 68 | 1008.3 |
| 20260506022851 | 62 | 145 | 0.0 | 0.0 | 0.00 | 0.05 | 0.05 | 66 | 1008.2 |
| 20260506022349 | 62 | 145 | 0.0 | 0.0 | 0.00 | 0.05 | 0.05 | 66 | 1008.2 |
| 20260506021847 | 63 | 145 | 0.0 | 0.0 | 0.00 | 0.05 | 0.05 | 66 | 1008.4 |
| 20260506021344 | 63 | 145 | 0.0 | 0.0 | 0.00 | 0.05 | 0.05 | 66 | 1008.4 |
| 20260506020840 | 63 | 145 | 0.0 | 0.0 | 0.00 | 0.05 | 0.05 | 63 | 1008.3 |
| 20260506020338 | 63 | 145 | 0.0 | 0.0 | 0.00 | 0.05 | 0.05 | 63 | 1008.3 |
| 20260506015836 | 64 | 145 | 0.0 | 0.0 | 0.00 | 0.05 | 0.05 | 64 | 1008.4 |
| 20260506015333 | 64 | 145 | 0.0 | 0.0 | 0.00 | 0.05 | 0.05 | 64 | 1008.4 |
| 20260506014829 | 65 | 145 | 0.0 | 0.0 | 0.00 | 0.05 | 0.05 | 63 | 1008.2 |
| 20260506014326 | 65 | 145 | 0.0 | 0.0 | 0.00 | 0.05 | 0.05 | 63 | 1008.2 |
| 20260506013823 | 66 | 145 | 0.0 | 0.0 | 0.00 | 0.05 | 0.05 | 60 | 1008.2 |
| 20260506013320 | 66 | 145 | 0.0 | 0.0 | 0.00 | 0.05 | 0.05 | 60 | 1008.2 |
| 20260506012817 | 66 | 145 | 0.0 | 0.0 | 0.00 | 0.05 | 0.05 | 58 | 1008.2 |
| 20260506012314 | 66 | 145 | 0.0 | 0.0 | 0.00 | 0.05 | 0.05 | 58 | 1008.2 |
| 20260506011811 | 67 | 145 | 0.0 | 0.0 | 0.00 | 0.05 | 0.05 | 57 | 1007.9 |
| 20260506011308 | 67 | 145 | 0.0 | 0.0 | 0.00 | 0.05 | 0.05 | 57 | 1007.9 |
| 20260506010805 | 68 | 145 | 0.0 | 0.0 | 0.00 | 0.05 | 0.05 | 56 | 1007.6 |
| 20260506010303 | 68 | 145 | 0.0 | 0.0 | 0.00 | 0.05 | 0.05 | 56 | 1007.6 |
| 20260506005800 | 69 | 145 | 0.0 | 0.0 | 0.00 | 0.05 | 0.05 | 53 | 1007.8 |
| 20260506005257 | 69 | 145 | 0.0 | 0.0 | 0.00 | 0.05 | 0.05 | 53 | 1007.8 |
| 20260506004752 | 69 | 145 | 0.0 | 0.0 | 0.00 | 0.05 | 0.05 | 51 | 1007.5 |
| 20260506004250 | 70 | 145 | 0.0 | 0.0 | 0.00 | 0.05 | 0.05 | 51 | 1007.4 |
| 20260506003746 | 70 | 145 | 0.0 | 0.0 | 0.00 | 0.05 | 0.05 | 51 | 1007.4 |
| 20260506003243 | 71 | 145 | 0.0 | 0.0 | 0.00 | 0.05 | 0.05 | 50 | 1007.4 |
| 20260506002739 | 71 | 145 | 0.0 | 0.0 | 0.00 | 0.05 | 0.05 | 50 | 1007.4 |
| 20260506002235 | 72 | 144 | 0.0 | 0.0 | 0.00 | 0.05 | 0.05 | 45 | 1007.1 |
| 20260506001731 | 72 | 144 | 0.0 | 0.0 | 0.00 | 0.05 | 0.05 | 45 | 1007.1 |
| 20260506001229 | 72 | 145 | 0.0 | 0.0 | 0.00 | 0.05 | 0.05 | 48 | 1007.2 |
| 20260506000725 | 72 | 145 | 0.0 | 0.0 | 0.00 | 0.05 | 0.05 | 48 | 1007.2 |
| 20260506000223 | 73 | 145 | 0.0 | 0.0 | 0.00 | 0.05 | 0.05 | 47 | 1007.0 |
| 20260505235720 | 73 | 145 | 0.0 | 0.0 | 0.00 | 0.05 | 0.05 | 47 | 1007.0 |
| 20260505235218 | 74 | 145 | 0.0 | 0.0 | 0.00 | 0.05 | 0.05 | 47 | 1006.8 |
| 20260505234714 | 74 | 145 | 0.0 | 0.0 | 0.00 | 0.05 | 0.05 | 47 | 1006.8 |
| 20260505234212 | 75 | 137 | 0.0 | 0.0 | 0.00 | 0.05 | 0.05 | 41 | 1007.0 |
| 20260505233708 | 75 | 137 | 0.0 | 0.0 | 0.00 | 0.05 | 0.05 | 41 | 1007.0 |
| 20260505233206 | 75 | 137 | 0.0 | 0.0 | 0.00 | 0.05 | 0.05 | 39 | 1006.9 |
| 20260505232703 | 75 | 137 | 0.0 | 0.0 | 0.00 | 0.05 | 0.05 | 39 | 1006.9 |
| 20260505232201 | 75 | 141 | 0.0 | 0.0 | 0.00 | 0.05 | 0.05 | 40 | 1006.7 |
| 20260505231657 | 75 | 141 | 0.0 | 0.0 | 0.00 | 0.05 | 0.05 | 40 | 1006.7 |
| 20260505231156 | 76 | 156 | 0.0 | 0.0 | 0.00 | 0.05 | 0.05 | 39 | 1006.7 |
| 20260505230654 | 76 | 156 | 0.0 | 0.0 | 0.00 | 0.05 | 0.05 | 39 | 1006.7 |
| 20260505230150 | 76 | 28 | 1.0 | 2.0 | 0.00 | 0.05 | 0.05 | 36 | 1006.4 |
| 20260505225646 | 76 | 28 | 1.0 | 2.0 | 0.00 | 0.05 | 0.05 | 36 | 1006.4 |
| 20260505225143 | 76 | 127 | 0.0 | 0.0 | 0.00 | 0.05 | 0.05 | 37 | 1006.6 |
| 20260505224639 | 76 | 127 | 0.0 | 0.0 | 0.00 | 0.05 | 0.05 | 37 | 1006.6 |
| 20260505224137 | 77 | 179 | 1.0 | 1.0 | 0.00 | 0.05 | 0.05 | 38 | 1006.6 |
| 20260505223635 | 77 | 179 | 1.0 | 1.0 | 0.00 | 0.05 | 0.05 | 38 | 1006.6 |
| 20260505223130 | 77 | 163 | 0.0 | 0.0 | 0.00 | 0.05 | 0.05 | 36 | 1006.4 |
| 20260505222626 | 77 | 163 | 0.0 | 0.0 | 0.00 | 0.05 | 0.05 | 36 | 1006.4 |
| 20260505222123 | 77 | 158 | 0.0 | 0.0 | 0.00 | 0.05 | 0.05 | 36 | 1006.5 |
| 20260505221620 | 77 | 158 | 0.0 | 0.0 | 0.00 | 0.05 | 0.05 | 36 | 1006.5 |
| 20260505221116 | 77 | 150 | 0.0 | 1.0 | 0.00 | 0.05 | 0.05 | 38 | 1006.4 |
| 20260505220614 | 77 | 150 | 0.0 | 1.0 | 0.00 | 0.05 | 0.05 | 38 | 1006.4 |
| 20260505220112 | 76 | 169 | 0.0 | 0.0 | 0.00 | 0.05 | 0.05 | 37 | 1006.4 |
| 20260505215609 | 76 | 169 | 0.0 | 0.0 | 0.00 | 0.05 | 0.05 | 37 | 1006.4 |
| 20260505215107 | 76 | 168 | 0.0 | 0.0 | 0.00 | 0.05 | 0.05 | 40 | 1006.3 |
| 20260505214605 | 76 | 168 | 0.0 | 0.0 | 0.00 | 0.05 | 0.05 | 40 | 1006.3 |
| 20260505214101 | 77 | 120 | 1.0 | 2.0 | 0.00 | 0.05 | 0.05 | 35 | 1006.4 |
| 20260505213559 | 77 | 120 | 1.0 | 2.0 | 0.00 | 0.05 | 0.05 | 35 | 1006.4 |
| 20260505213056 | 78 | 159 | 0.0 | 0.0 | 0.00 | 0.05 | 0.05 | 35 | 1006.4 |
| 20260505212552 | 78 | 159 | 0.0 | 0.0 | 0.00 | 0.05 | 0.05 | 35 | 1006.4 |
| 20260505212050 | 78 | 155 | 2.0 | 2.0 | 0.00 | 0.05 | 0.05 | 32 | 1006.4 |
| 20260505211546 | 78 | 155 | 2.0 | 2.0 | 0.00 | 0.05 | 0.05 | 32 | 1006.4 |
| 20260505211043 | 79 | 135 | 0.0 | 1.0 | 0.00 | 0.05 | 0.05 | 33 | 1006.0 |
| 20260505210539 | 79 | 135 | 0.0 | 1.0 | 0.00 | 0.05 | 0.05 | 33 | 1006.0 |
| 20260505210037 | 79 | 68 | 1.0 | 1.0 | 0.00 | 0.05 | 0.05 | 33 | 1006.1 |
| 20260505205535 | 79 | 68 | 1.0 | 1.0 | 0.00 | 0.05 | 0.05 | 33 | 1006.1 |
| 20260505205032 | 79 | 178 | 1.0 | 2.0 | 0.00 | 0.05 | 0.05 | 31 | 1006.3 |
| 20260505204529 | 79 | 178 | 1.0 | 2.0 | 0.00 | 0.05 | 0.05 | 31 | 1006.3 |
| 20260505204026 | 79 | 115 | 1.0 | 2.0 | 0.00 | 0.05 | 0.05 | 32 | 1006.1 |
| 20260505203523 | 79 | 115 | 1.0 | 2.0 | 0.00 | 0.05 | 0.05 | 32 | 1006.1 |
| 20260505203020 | 80 | 173 | 2.0 | 2.0 | 0.00 | 0.05 | 0.05 | 30 | 1005.8 |
| 20260505202516 | 80 | 173 | 2.0 | 2.0 | 0.00 | 0.05 | 0.05 | 30 | 1005.8 |
| 20260505202012 | 80 | 153 | 3.0 | 4.0 | 0.00 | 0.05 | 0.05 | 32 | 1005.7 |
| 20260505201510 | 80 | 153 | 3.0 | 4.0 | 0.00 | 0.05 | 0.05 | 32 | 1005.7 |
| 20260505201007 | 81 | 111 | 5.0 | 7.0 | 0.00 | 0.05 | 0.05 | 33 | 1005.6 |
| 20260505200505 | 81 | 111 | 5.0 | 7.0 | 0.00 | 0.05 | 0.05 | 33 | 1005.6 |
| 20260505200000 | 81 | 177 | 2.0 | 2.0 | 0.00 | 0.05 | 0.05 | 33 | 1005.7 |
| 20260505195457 | 81 | 177 | 2.0 | 2.0 | 0.00 | 0.05 | 0.05 | 33 | 1005.7 |
| 20260505194955 | 82 | 98 | 2.0 | 2.0 | 0.00 | 0.05 | 0.05 | 30 | 1005.8 |
| 20260505194452 | 82 | 98 | 2.0 | 2.0 | 0.00 | 0.05 | 0.05 | 30 | 1005.8 |
| 20260505193952 | 82 | 209 | 3.0 | 3.0 | 0.00 | 0.05 | 0.05 | 31 | 1006.1 |
| 20260505193450 | 82 | 209 | 3.0 | 3.0 | 0.00 | 0.05 | 0.05 | 31 | 1006.1 |
| 20260505192947 | 81 | 105 | 3.0 | 4.0 | 0.00 | 0.05 | 0.05 | 32 | 1005.9 |
| 20260505192446 | 81 | 105 | 3.0 | 4.0 | 0.00 | 0.05 | 0.05 | 32 | 1005.9 |
| 20260505191942 | 80 | 103 | 3.0 | 4.0 | 0.00 | 0.05 | 0.05 | 33 | 1006.1 |
| 20260505191441 | 80 | 103 | 3.0 | 4.0 | 0.00 | 0.05 | 0.05 | 33 | 1006.1 |
| 20260505190937 | 80 | 172 | 1.0 | 1.0 | 0.00 | 0.05 | 0.05 | 33 | 1006.4 |
| 20260505190433 | 80 | 172 | 1.0 | 1.0 | 0.00 | 0.05 | 0.05 | 33 | 1006.4 |
| 20260505185928 | 81 | 117 | 1.0 | 1.0 | 0.00 | 0.05 | 0.05 | 32 | 1006.7 |
| 20260505185426 | 81 | 117 | 1.0 | 1.0 | 0.00 | 0.05 | 0.05 | 32 | 1006.7 |
| 20260505184922 | 82 | 158 | 3.0 | 3.0 | 0.00 | 0.05 | 0.05 | 31 | 1006.8 |
| 20260505184419 | 82 | 158 | 3.0 | 3.0 | 0.00 | 0.05 | 0.05 | 31 | 1006.8 |
| 20260505183916 | 81 | 113 | 2.0 | 3.0 | 0.00 | 0.05 | 0.05 | 31 | 1006.9 |
| 20260505183413 | 81 | 113 | 2.0 | 3.0 | 0.00 | 0.05 | 0.05 | 31 | 1006.9 |
| 20260505182909 | 80 | 65 | 2.0 | 3.0 | 0.00 | 0.05 | 0.05 | 29 | 1007.3 |
| 20260505182406 | 80 | 65 | 2.0 | 3.0 | 0.00 | 0.05 | 0.05 | 29 | 1007.3 |
| 20260505181903 | 81 | 182 | 4.0 | 7.0 | 0.00 | 0.05 | 0.05 | 29 | 1007.4 |
| 20260505181400 | 81 | 182 | 4.0 | 7.0 | 0.00 | 0.05 | 0.05 | 29 | 1007.4 |
| 20260505180857 | 81 | 132 | 1.0 | 1.0 | 0.00 | 0.05 | 0.05 | 34 | 1007.4 |
| 20260505180353 | 81 | 132 | 1.0 | 1.0 | 0.00 | 0.05 | 0.05 | 34 | 1007.4 |
| 20260505175850 | 81 | 138 | 4.0 | 6.0 | 0.00 | 0.05 | 0.05 | 33 | 1007.4 |
| 20260505175346 | 81 | 138 | 4.0 | 6.0 | 0.00 | 0.05 | 0.05 | 33 | 1007.4 |
| 20260505174843 | 80 | 100 | 2.0 | 2.0 | 0.00 | 0.05 | 0.05 | 33 | 1007.4 |
| 20260505174341 | 80 | 100 | 2.0 | 2.0 | 0.00 | 0.05 | 0.05 | 33 | 1007.4 |
| 20260505173836 | 80 | 155 | 2.0 | 2.0 | 0.00 | 0.05 | 0.05 | 36 | 1007.4 |
| 20260505173333 | 80 | 155 | 2.0 | 2.0 | 0.00 | 0.05 | 0.05 | 36 | 1007.4 |
| 20260505172830 | 79 | 142 | 1.0 | 2.0 | 0.00 | 0.05 | 0.05 | 36 | 1007.5 |
| 20260505172328 | 79 | 142 | 1.0 | 2.0 | 0.00 | 0.05 | 0.05 | 36 | 1007.5 |
| 20260505171827 | 79 | 166 | 1.0 | 1.0 | 0.00 | 0.05 | 0.05 | 38 | 1007.5 |
| 20260505171324 | 79 | 166 | 1.0 | 1.0 | 0.00 | 0.05 | 0.05 | 38 | 1007.5 |
| 20260505170821 | 80 | 111 | 1.0 | 1.0 | 0.00 | 0.05 | 0.05 | 40 | 1007.8 |
| 20260505170318 | 80 | 111 | 1.0 | 1.0 | 0.00 | 0.05 | 0.05 | 40 | 1007.8 |
| 20260505165813 | 79 | 135 | 1.0 | 1.0 | 0.00 | 0.05 | 0.05 | 41 | 1007.9 |
| 20260505165309 | 79 | 135 | 1.0 | 1.0 | 0.00 | 0.05 | 0.05 | 41 | 1007.9 |
| 20260505164805 | 79 | 156 | 2.0 | 2.0 | 0.00 | 0.05 | 0.05 | 38 | 1007.9 |
| 20260505164302 | 79 | 156 | 2.0 | 2.0 | 0.00 | 0.05 | 0.05 | 38 | 1007.9 |
| 20260505163800 | 79 | 82 | 2.0 | 2.0 | 0.00 | 0.05 | 0.05 | 36 | 1008.2 |
| 20260505163258 | 79 | 82 | 2.0 | 2.0 | 0.00 | 0.05 | 0.05 | 36 | 1008.2 |
| 20260505162756 | 79 | 152 | 1.0 | 2.0 | 0.00 | 0.05 | 0.05 | 39 | 1008.3 |
| 20260505162252 | 79 | 152 | 1.0 | 2.0 | 0.00 | 0.05 | 0.05 | 39 | 1008.3 |
| 20260505161750 | 79 | 104 | 1.0 | 1.0 | 0.00 | 0.05 | 0.05 | 39 | 1008.3 |
| 20260505161247 | 79 | 104 | 1.0 | 1.0 | 0.00 | 0.05 | 0.05 | 39 | 1008.3 |
| 20260505160744 | 78 | 151 | 1.0 | 1.0 | 0.00 | 0.05 | 0.05 | 43 | 1008.4 |
| 20260505160242 | 78 | 151 | 1.0 | 1.0 | 0.00 | 0.05 | 0.05 | 43 | 1008.4 |
| 20260505153221 | 78 | 130 | 3.0 | 3.0 | 0.00 | 0.05 | 0.05 | 39 | 1008.8 |
| 20260505152718 | 77 | 151 | 3.0 | 3.0 | 0.00 | 0.05 | 0.05 | 42 | 1008.7 |
| 20260505152214 | 77 | 151 | 3.0 | 3.0 | 0.00 | 0.05 | 0.05 | 42 | 1008.7 |
| 20260505151709 | 77 | 191 | 1.0 | 1.0 | 0.00 | 0.05 | 0.05 | 42 | 1008.8 |
| 20260505151207 | 77 | 191 | 1.0 | 1.0 | 0.00 | 0.05 | 0.05 | 42 | 1008.8 |
| 20260505150702 | 77 | 137 | 3.0 | 4.0 | 0.00 | 0.05 | 0.05 | 40 | 1008.8 |
| 20260505150200 | 77 | 137 | 3.0 | 4.0 | 0.00 | 0.05 | 0.05 | 40 | 1008.8 |
| 20260505140217 | 73 | 115 | 0.0 | 0.0 | 0.00 | 0.05 | 0.05 | 47 | 1008.9 |
| 20260505130141 | 68 | 100 | 0.0 | 0.0 | 0.00 | 0.05 | 0.05 | 58 | 1009.5 |
| 20260505124631 | 66 | 114 | 0.0 | 0.0 | 0.00 | 0.05 | 0.05 | 61 | 1009.5 |
| 20260505124127 | 66 | 114 | 0.0 | 0.0 | 0.00 | 0.05 | 0.05 | 63 | 1009.3 |
| 20260505123623 | 66 | 114 | 0.0 | 0.0 | 0.00 | 0.05 | 0.05 | 63 | 1009.3 |
| 20260505123120 | 65 | 114 | 0.0 | 0.0 | 0.00 | 0.05 | 0.05 | 60 | 1009.6 |
| 20260505122617 | 65 | 114 | 0.0 | 0.0 | 0.00 | 0.05 | 0.05 | 60 | 1009.6 |
| 20260505122114 | 64 | 118 | 0.0 | 0.0 | 0.00 | 0.05 | 0.05 | 68 | 1009.7 |
| 20260505121610 | 64 | 118 | 0.0 | 0.0 | 0.00 | 0.05 | 0.05 | 68 | 1009.7 |
| 20260505121107 | 64 | 118 | 0.0 | 0.0 | 0.00 | 0.05 | 0.05 | 70 | 1009.5 |
| 20260505120603 | 64 | 118 | 0.0 | 0.0 | 0.00 | 0.05 | 0.05 | 70 | 1009.5 |
| 20260505120059 | 63 | 127 | 0.0 | 0.0 | 0.00 | 0.05 | 0.05 | 75 | 1009.2 |
| 20260505115554 | 63 | 127 | 0.0 | 0.0 | 0.00 | 0.05 | 0.05 | 75 | 1009.2 |
| 20260505115051 | 62 | 127 | 0.0 | 0.0 | 0.00 | 0.05 | 0.05 | 79 | 1009.3 |
| 20260505114548 | 62 | 127 | 0.0 | 0.0 | 0.00 | 0.05 | 0.05 | 79 | 1009.3 |
| 20260505114045 | 60 | 128 | 0.0 | 0.0 | 0.00 | 0.05 | 0.05 | 79 | 1009.4 |
| 20260505113541 | 60 | 128 | 0.0 | 0.0 | 0.00 | 0.05 | 0.05 | 79 | 1009.4 |
| 20260505113038 | 59 | 128 | 0.0 | 0.0 | 0.00 | 0.05 | 0.05 | 83 | 1009.3 |
| 20260505112534 | 59 | 128 | 0.0 | 0.0 | 0.00 | 0.05 | 0.05 | 83 | 1009.3 |
| 20260505112033 | 57 | 128 | 0.0 | 0.0 | 0.00 | 0.05 | 0.05 | 85 | 1009.2 |
| 20260505111532 | 57 | 128 | 0.0 | 0.0 | 0.00 | 0.05 | 0.05 | 85 | 1009.2 |
| 20260505111028 | 56 | 128 | 0.0 | 0.0 | 0.00 | 0.05 | 0.05 | 89 | 1009.2 |
| 20260505110525 | 56 | 128 | 0.0 | 0.0 | 0.00 | 0.05 | 0.05 | 89 | 1009.2 |
| 20260505101957 | 52 | 132 | 0.0 | 0.0 | 0.00 | 0.05 | 0.05 | 94 | 1008.7 |
| 20260505101455 | 52 | 132 | 0.0 | 0.0 | 0.00 | 0.05 | 0.05 | 94 | 1008.7 |
| 20260505100952 | 52 | 132 | 0.0 | 0.0 | 0.00 | 0.05 | 0.05 | 94 | 1008.7 |
| 20260505100449 | 52 | 132 | 0.0 | 0.0 | 0.00 | 0.05 | 0.05 | 94 | 1008.7 |
| 20260505095945 | 53 | 132 | 0.0 | 0.0 | 0.00 | 0.05 | 0.05 | 94 | 1008.8 |
| 20260505095441 | 53 | 132 | 0.0 | 0.0 | 0.00 | 0.05 | 0.05 | 94 | 1008.8 |
| 20260505094938 | 52 | 132 | 0.0 | 0.0 | 0.00 | 0.05 | 0.05 | 93 | 1008.6 |
| 20260505094435 | 52 | 132 | 0.0 | 0.0 | 0.00 | 0.05 | 0.05 | 93 | 1008.6 |
| 20260505093931 | 52 | 132 | 0.0 | 0.0 | 0.00 | 0.05 | 0.05 | 93 | 1008.5 |
| 20260505093428 | 52 | 132 | 0.0 | 0.0 | 0.00 | 0.05 | 0.05 | 93 | 1008.5 |
| 20260505092925 | 53 | 132 | 0.0 | 0.0 | 0.00 | 0.05 | 0.05 | 93 | 1008.7 |
| 20260505092423 | 53 | 132 | 0.0 | 0.0 | 0.00 | 0.05 | 0.05 | 93 | 1008.7 |
| 20260505091920 | 53 | 132 | 0.0 | 0.0 | 0.00 | 0.05 | 0.05 | 92 | 1008.7 |
| 20260505091418 | 53 | 132 | 0.0 | 0.0 | 0.00 | 0.05 | 0.05 | 92 | 1008.7 |
| 20260505090915 | 54 | 132 | 0.0 | 0.0 | 0.00 | 0.05 | 0.05 | 93 | 1008.7 |
| 20260505090414 | 54 | 132 | 0.0 | 0.0 | 0.00 | 0.05 | 0.05 | 93 | 1008.7 |
| 20260505085910 | 54 | 132 | 0.0 | 0.0 | 0.00 | 0.05 | 0.05 | 91 | 1008.5 |
| 20260505085409 | 54 | 132 | 0.0 | 0.0 | 0.00 | 0.05 | 0.05 | 91 | 1008.5 |
| 20260505084906 | 55 | 132 | 0.0 | 0.0 | 0.00 | 0.05 | 0.05 | 91 | 1008.5 |
| 20260505084404 | 55 | 132 | 0.0 | 0.0 | 0.00 | 0.05 | 0.05 | 91 | 1008.5 |
| 20260505083902 | 55 | 132 | 0.0 | 0.0 | 0.00 | 0.05 | 0.05 | 91 | 1008.7 |
| 20260505083359 | 55 | 132 | 0.0 | 0.0 | 0.00 | 0.05 | 0.05 | 91 | 1008.7 |
| 20260505082855 | 55 | 132 | 0.0 | 0.0 | 0.00 | 0.05 | 0.05 | 91 | 1008.6 |
| 20260505082351 | 55 | 132 | 0.0 | 0.0 | 0.00 | 0.05 | 0.05 | 91 | 1008.6 |
| 20260505081848 | 55 | 132 | 0.0 | 0.0 | 0.00 | 0.05 | 0.05 | 89 | 1008.5 |
| 20260505081345 | 55 | 132 | 0.0 | 0.0 | 0.00 | 0.05 | 0.05 | 89 | 1008.5 |
| 20260505080842 | 56 | 145 | 0.0 | 0.0 | 0.00 | 0.05 | 0.05 | 88 | 1008.3 |
| 20260505080338 | 56 | 145 | 0.0 | 0.0 | 0.00 | 0.05 | 0.05 | 88 | 1008.3 |
| 20260505075833 | 58 | 145 | 0.0 | 0.0 | 0.00 | 0.05 | 0.05 | 84 | 1008.4 |
| 20260505075330 | 58 | 145 | 0.0 | 0.0 | 0.00 | 0.05 | 0.05 | 84 | 1008.4 |
| 20260505074827 | 61 | 145 | 0.0 | 0.0 | 0.31 | 0.05 | 0.05 | 77 | 1008.5 |
| 20260505074325 | 61 | 145 | 0.0 | 0.0 | 0.31 | 0.05 | 0.05 | 77 | 1008.5 |
| 20260505073822 | 64 | 138 | 0.0 | 0.0 | 0.00 | 0.00 | 0.00 | 51 | 1008.3 |
| 20260505073320 | 64 | 138 | 0.0 | 0.0 | 0.00 | 0.00 | 0.00 | 51 | 1008.3 |
| 20260505072816 | 64 | 108 | 1.0 | 1.0 | 0.00 | 0.00 | 0.00 | 51 | 1008.2 |
| 20260505072313 | 64 | 108 | 1.0 | 1.0 | 0.00 | 0.00 | 0.00 | 51 | 1008.2 |
| 20260505071809 | 64 | 168 | 0.0 | 0.0 | 0.00 | 0.00 | 0.00 | 51 | 1008.1 |
| 20260505071306 | 64 | 168 | 0.0 | 0.0 | 0.00 | 0.00 | 0.00 | 51 | 1008.1 |
| 20260505070804 | 64 | 152 | 0.0 | 0.0 | 0.00 | 0.00 | 0.00 | 51 | 1008.1 |
| 20260505070259 | 64 | 152 | 0.0 | 0.0 | 0.00 | 0.00 | 0.00 | 51 | 1008.1 |
| 20260505065755 | 64 | 151 | 1.0 | 1.0 | 0.00 | 0.00 | 0.00 | 49 | 1008.2 |
| 20260505065252 | 64 | 151 | 1.0 | 1.0 | 0.00 | 0.00 | 0.00 | 49 | 1008.2 |
| 20260505064749 | 64 | 135 | 1.0 | 1.0 | 0.00 | 0.00 | 0.00 | 48 | 1008.6 |
| 20260505064246 | 64 | 135 | 1.0 | 1.0 | 0.00 | 0.00 | 0.00 | 48 | 1008.6 |
| 20260505063744 | 64 | 128 | 0.0 | 0.0 | 0.00 | 0.00 | 0.00 | 48 | 1008.5 |
| 20260505063240 | 64 | 128 | 0.0 | 0.0 | 0.00 | 0.00 | 0.00 | 48 | 1008.5 |
| 20260505062736 | 64 | 117 | 0.0 | 0.0 | 0.00 | 0.00 | 0.00 | 49 | 1008.5 |
| 20260505062234 | 64 | 117 | 0.0 | 0.0 | 0.00 | 0.00 | 0.00 | 49 | 1008.5 |
| 20260505061731 | 64 | 127 | 0.0 | 0.0 | 0.00 | 0.00 | 0.00 | 48 | 1008.5 |
| 20260505061229 | 64 | 127 | 0.0 | 0.0 | 0.00 | 0.00 | 0.00 | 48 | 1008.5 |
| 20260505060726 | 64 | 149 | 1.0 | 1.0 | 0.00 | 0.00 | 0.00 | 48 | 1008.6 |
| 20260505060223 | 64 | 149 | 1.0 | 1.0 | 0.00 | 0.00 | 0.00 | 48 | 1008.6 |
| 20260505055718 | 63 | 162 | 0.0 | 0.0 | 0.00 | 0.00 | 0.00 | 51 | 1008.7 |
| 20260505055215 | 63 | 162 | 0.0 | 0.0 | 0.00 | 0.00 | 0.00 | 51 | 1008.7 |
| 20260505054712 | 62 | 162 | 0.0 | 0.0 | 0.00 | 0.00 | 0.00 | 52 | 1008.6 |
| 20260505054210 | 62 | 162 | 0.0 | 0.0 | 0.00 | 0.00 | 0.00 | 52 | 1008.6 |
| 20260505053708 | 61 | 105 | 0.0 | 0.0 | 0.00 | 0.00 | 0.00 | 51 | 1008.6 |
| 20260505053204 | 61 | 105 | 0.0 | 0.0 | 0.00 | 0.00 | 0.00 | 51 | 1008.6 |
| 20260505052701 | 62 | 109 | 0.0 | 0.0 | 0.00 | 0.00 | 0.00 | 50 | 1008.6 |
| 20260505052158 | 62 | 109 | 0.0 | 0.0 | 0.00 | 0.00 | 0.00 | 50 | 1008.6 |
| 20260505051655 | 63 | 109 | 0.0 | 0.0 | 0.00 | 0.00 | 0.00 | 48 | 1008.7 |
| 20260505051153 | 63 | 109 | 0.0 | 0.0 | 0.00 | 0.00 | 0.00 | 48 | 1008.7 |
| 20260505050651 | 62 | 97 | 1.0 | 1.0 | 0.00 | 0.00 | 0.00 | 48 | 1008.5 |
| 20260505050149 | 62 | 97 | 1.0 | 1.0 | 0.00 | 0.00 | 0.00 | 48 | 1008.5 |
| 20260505041619 | 65 | 195 | 1.0 | 2.0 | 0.00 | 0.00 | 0.00 | 43 | 1008.0 |
| 20260505041116 | 65 | 195 | 1.0 | 2.0 | 0.00 | 0.00 | 0.00 | 43 | 1008.0 |
| 20260505040613 | 65 | 119 | 1.0 | 1.0 | 0.00 | 0.00 | 0.00 | 42 | 1007.8 |
| 20260505040110 | 65 | 132 | 1.0 | 1.0 | 0.00 | 0.00 | 0.00 | 42 | 1007.9 |
| 20260505035606 | 65 | 132 | 1.0 | 1.0 | 0.00 | 0.00 | 0.00 | 42 | 1007.9 |
| 20260505035103 | 65 | 132 | 1.0 | 1.0 | 0.00 | 0.00 | 0.00 | 42 | 1007.9 |
| 20260505034559 | 65 | 141 | 2.0 | 3.0 | 0.00 | 0.00 | 0.00 | 43 | 1008.0 |
| 20260505034056 | 65 | 141 | 2.0 | 3.0 | 0.00 | 0.00 | 0.00 | 43 | 1008.0 |
| 20260505033553 | 65 | 85 | 1.0 | 2.0 | 0.00 | 0.00 | 0.00 | 42 | 1007.9 |